GW2960 Weather Reports


time (UTC)temp
F
wind
direction
speed
knots
gust
knots
rain 1hr
in
rain 24hr
in
rain mn
in
humidity
%
barometer
mb
20260503053023 80 263 2.6 6.1 0.00 0.00 0.00 78 1013.6
20260503051549 81 284 1.7 7.0 0.00 0.00 0.00 78 1013.8
20260503050022 81 277 4.3 8.7 0.00 0.00 0.00 78 1014.0
20260503044519 81 287 3.5 7.0 0.00 0.00 0.00 77 1014.0
20260503043044 81 288 3.5 7.8 0.00 0.00 0.00 77 1014.0
20260503041505 82 279 3.5 7.0 0.00 0.00 0.00 76 1013.8
20260503040047 82 255 4.3 7.0 0.00 0.00 0.00 76 1013.8
20260503034514 82 247 2.6 8.7 0.00 0.00 0.00 75 1013.7
20260503033038 82 296 2.6 8.7 0.00 0.00 0.00 75 1013.5
20260503031504 82 278 5.2 8.7 0.00 0.00 0.00 73 1013.4
20260503030041 82 270 4.3 9.6 0.00 0.00 0.00 72 1013.4
20260503024533 82 252 4.3 11.3 0.00 0.00 0.00 71 1013.3
20260503023054 83 252 4.3 10.4 0.00 0.00 0.00 70 1013.4
20260503021522 83 271 5.2 11.3 0.00 0.00 0.00 68 1013.3
20260503020040 84 298 7.0 11.3 0.00 0.00 0.00 67 1013.2
20260503014540 84 250 4.3 10.4 0.00 0.00 0.00 65 1013.1
20260503013100 85 281 6.1 13.9 0.00 0.00 0.00 64 1012.9
20260503011518 85 293 7.8 14.8 0.00 0.00 0.00 62 1012.7
20260503010052 86 275 7.0 13.9 0.00 0.00 0.00 60 1012.5
20260503004548 86 262 8.7 13.0 0.00 0.00 0.00 58 1012.3
20260503003017 87 262 7.0 13.0 0.00 0.00 0.00 55 1012.1
20260503001604 88 306 7.0 14.8 0.00 0.00 0.00 53 1011.9
20260503000023 89 296 6.1 15.6 0.00 0.00 0.00 49 1011.8
20260502234532 90 272 4.3 12.2 0.00 0.00 0.00 44 1011.4
20260502233052 90 292 6.1 12.2 0.00 0.00 0.00 42 1011.2
20260502231517 91 289 6.1 12.2 0.00 0.00 0.00 42 1010.8
20260502230043 91 272 4.3 9.6 0.00 0.00 0.00 42 1010.6
20260502224542 92 301 4.3 14.8 0.00 0.00 0.00 42 1010.5
20260502223012 93 213 3.5 13.9 0.00 0.00 0.00 42 1010.4
20260502221540 93 203 4.3 12.2 0.00 0.00 0.00 41 1010.4
20260502220004 94 298 4.3 13.0 0.00 0.00 0.00 41 1010.3
20260502214509 94 247 4.3 12.2 0.00 0.00 0.00 39 1010.2
20260502213036 94 290 6.1 13.0 0.00 0.00 0.00 40 1010.1
20260502211556 95 242 8.7 15.6 0.00 0.00 0.00 39 1010.0
20260502210010 94 251 7.0 13.9 0.00 0.00 0.00 40 1009.8
20260502203010 94 222 8.7 20.0 0.00 0.00 0.00 41 1010.0
20260502200043 94 206 5.2 17.4 0.00 0.00 0.00 44 1010.3
20260502194535 94 257 8.7 15.6 0.00 0.00 0.00 44 1010.3
20260502193002 95 224 8.7 18.2 0.00 0.00 0.00 43 1010.4
20260502191525 95 261 9.6 16.5 0.00 0.00 0.00 44 1010.6
20260502190104 93 236 10.4 19.1 0.00 0.00 0.00 46 1010.6
20260502184547 87 164 3.5 13.0 0.00 0.00 0.00 75 1010.7
20260502183021 86 144 6.1 13.9 0.00 0.00 0.00 76 1010.9
20260502181541 86 180 5.2 11.3 0.00 0.00 0.00 78 1010.9
20260502163002 85 205 4.3 8.7 0.00 0.00 0.00 81 1011.9
20260502161528 85 206 2.6 10.4 0.00 0.00 0.00 80 1012.0
20260502151611 85 151 4.3 12.2 0.00 0.00 0.00 82 1012.3
20260502123028 81 232 0.9 6.1 0.00 0.00 0.00 85 1011.9
20260502121546 80 225 0.9 3.5 0.00 0.00 0.00 86 1011.9
20260502114512 77 213 1.7 2.6 0.00 0.00 0.00 87 1011.9
20260502113038 77 269 0.0 1.7 0.00 0.00 0.00 87 1012.0
20260502111516 77 269 0.0 0.0 0.00 0.00 0.00 87 1012.2
20260502110036 76 269 0.0 0.0 0.00 0.00 0.00 87 1011.9
20260502104529 76 269 0.0 0.0 0.00 0.00 0.00 87 1011.9
20260502103059 76 269 0.0 0.9 0.00 0.00 0.00 86 1012.0
20260502103002 76 269 0.0 0.9 0.00 0.00 0.00 86 1011.9
20260502101540 76 269 0.0 1.7 0.00 0.00 0.00 86 1011.8
20260502071515 76 293 0.9 3.5 0.00 0.00 0.00 81 1011.9
20260502070038 77 287 0.9 2.6 0.00 0.00 0.00 81 1012.0
20260502064538 77 285 0.9 3.5 0.00 0.00 0.00 80 1012.0
20260502063056 77 293 1.7 3.5 0.00 0.00 0.00 81 1012.0
20260502061522 77 268 0.9 2.6 0.00 0.00 0.00 83 1012.1
20260502060039 79 252 0.9 3.5 0.00 0.00 0.00 85 1012.1
20260502054532 79 209 0.9 4.3 0.00 0.00 0.00 85 1012.1